ギブス彗星

C/2011 A3 ( Gibbs )

English version
Home page
Updated on August 8, 2015

---------------------------------------------------------------------

・ プロフィール

発見日 2011年1月15日
発見光度 18.4等
発見者 A. R. Gibbs (Catalina)

・ 写真集

・ 軌道要素

Epoch 2011 Dec. 25.0 TT = JDT 2455920.5
T 2011 Dec. 16.08243 TT                                 MPC
q   2.3449181            (2000.0)            P               Q
z  +0.0008971      Peri.  141.16198     -0.01648914     +0.93259723
 +/-0.0000003      Node   124.89032     -0.99145485     +0.03141778
e   0.9978965      Incl.   26.07531     -0.12940395     -0.35954880
From 1577 observations 2011 Jan. 15-2013 Oct. 6, mean residual 0".6.

・ 星図

・ 光度変化

        m1 = 5.5 + 5 logΔ + 15.0 log r

---------------------------------------------------------------------

軌道要素はM.P.E.C. 2013-U17に掲載されたものです。
星図はステラナビゲータ Ver.8 (アストロアーツ) で作成したものです。
光度グラフはComet for Windowsで作成したものです。

---------------------------------------------------------------------

Copyright(C) Seiichi Yoshida (comet@aerith.net). All rights reserved.